Home   Weather   Bamyan   Past weeks

Flag for Afghanistan Past Weather in Bamyan, Afghanistan — Yesterday and Last 2 Weeks

Now
82 °F

Passing clouds.


Feels Like: 80 °F
Forecast: 40 / 53 °F
Wind: 5 mph from Southeast

Location: Termez Airport

Current Time: May 1, 2017 at 11:11:21 am

Latest Report: May 1, 2017 at 10:30 am


Visibility: N/A

Pressure: 30.07 "Hg (22.66 "Hg at 2492m altitude)

Humidity: 20%

Dew Point: 37 °F

Location of BamyanLocation

Past Weather in Bamyan — Graph

°F

Bamyan Temperature Yesterday

Maximum temperature yesterday: 82 °F (at 4:00 pm)
Minimum temperature yesterday: 48 °F (at 4:30 am)
Average temperature yesterday: 67 °F

High & Low Weather Summary for the Past Weeks

 TemperatureHumidityPressure
High95 °F (Apr 16, 3:00 pm)93% (Apr 29, 5:00 am)30.39 "Hg (Apr 29, 5:00 am)
Low45 °F (Apr 29, 5:00 am)6% (Apr 23, 4:00 pm)29.71 "Hg (Apr 20, 2:30 am)
Average70 °F46%30.04 "Hg
* Reported Apr 16 9:30 am — May 1 10:00 am, Bamyan, Weather by CustomWeather, © 2017

Note: Actual official high and low records may vary slightly from our data, if they occured in-between our weather recording intervals... More about our weather records

Advertising

Bamyan Weather History for the Previous 24 Hours

Scroll right to see more
 ConditionsComfort  
Time TempWeatherWind HumidityBarometerVisibility
10:00 am
Mon, May 1
81 °FPassing clouds.5 mph21%30.07 "HgN/A
9:30 am79 °FSunny.5 mph24%30.07 "Hg10 mi
9:00 am77 °FPassing clouds.5 mph28%30.07 "HgN/A
8:30 am73 °FPassing clouds.5 mph33%30.07 "HgN/A
8:00 am70 °FPassing clouds.7 mph40%30.07 "HgN/A
7:30 am66 °FSunny.9 mph49%30.07 "Hg10 mi
7:00 am61 °FSunny.9 mph59%30.07 "Hg10 mi
6:30 am59 °FSunny.9 mph63%30.07 "Hg10 mi
5:30 am55 °FSunny.9 mph72%30.07 "Hg10 mi
4:30 am57 °FClear.12 mph67%30.04 "Hg10 mi
2:30 am57 °FClear.9 mph63%30.07 "Hg10 mi
1:30 am57 °FClear.7 mph63%30.07 "Hg10 mi
12:30 am57 °FClear.7 mph59%30.07 "Hg10 mi
11:30 pm
Sun, Apr 30
61 °FClear.5 mph48%30.09 "Hg10 mi
10:30 pm64 °FClear.7 mph40%30.09 "Hg10 mi
10:00 pm63 °FClear.7 mph42%30.09 "Hg10 mi
9:30 pm64 °FClear.7 mph46%30.09 "Hg10 mi
9:00 pm66 °FClear.9 mph37%30.09 "Hg10 mi
8:30 pm68 °FClear.7 mph40%30.12 "Hg10 mi
8:00 pm68 °FClear.7 mph38%30.12 "Hg10 mi
7:30 pm70 °FClear.7 mph35%30.09 "Hg10 mi
7:00 pm72 °FClear.7 mph33%30.12 "Hg10 mi
6:30 pm73 °FSunny.5 mph25%30.12 "Hg10 mi
6:00 pm77 °FSunny.7 mph19%30.12 "Hg10 mi
5:00 pm81 °FPassing clouds.7 mph16%30.12 "HgN/A
4:30 pm81 °FPassing clouds.7 mph16%30.12 "HgN/A
4:00 pm82 °FPassing clouds.9 mph16%30.15 "HgN/A
3:30 pm81 °FSunny.9 mph16%30.15 "Hg10 mi
3:00 pm81 °FPassing clouds.9 mph18%30.15 "HgN/A
2:30 pm81 °FPassing clouds.9 mph20%30.18 "HgN/A
2:00 pm81 °FPassing clouds.7 mph20%30.18 "HgN/A
1:30 pm79 °FSunny.7 mph24%30.18 "Hg10 mi
1:00 pm81 °FPassing clouds.12 mph20%30.21 "HgN/A
12:30 pm79 °FPassing clouds.9 mph21%30.21 "HgN/A
12:00 pm77 °FPassing clouds.9 mph26%30.21 "HgN/A
11:30 am77 °FSunny.5 mph26%30.24 "Hg10 mi
11:00 am77 °FPassing clouds.9 mph26%30.24 "HgN/A
Weather by CustomWeather, © 2017

See weather overviewHow to use our weather pages